AirNav   BOSE ProFlight Aviation Headset
 
 445 users online  

2J0 Wakulla County Airport
Panacea, Florida, USA

GOING TO PANACEA?


FAA INFORMATION EFFECTIVE 19 JULY 2018

Location

FAA Identifier: 2J0
Lat/Long: 29-59-22.0400N / 084-23-43.4100W
29-59.367333N / 084-23.723500W
29.9894556 / -84.3953917
(estimated)
Elevation: 11 ft. / 3.4 m (surveyed)
Variation: 01W (1985)
From city: 3 miles S of PANACEA, FL
Time zone: UTC -4 (UTC -5 during Standard Time)
Zip code: 32346

Airport Operations

Airport use: Open to the public
Activation date: 06/1966
Control tower: no
ARTCC: JACKSONVILLE CENTER
FSS: GAINESVILLE FLIGHT SERVICE STATION
NOTAMs facility: GNV (NOTAM-D service available)
Attendance: UNATNDD
GROUND ACCESS BY PRIOR REQUEST, 850-321-0373.
Wind indicator: lighted
Segmented circle: no
Lights: ACTVT LIRL RY 18/36 - CTAF.
Beacon: white-green (lighted land airport)
Operates sunset to sunrise.

Airport Communications

CTAF: 122.9

Nearby radio navigation aids

VOR radial/distance  VOR name  Freq  Var
SZWr180/34.0SEMINOLE VORTAC117.5002E

 
NDB name  Hdg/Dist  Freq  Var  ID
APALACHICOLA067/36.634903WAAF .- .- ..-.

Airport Services

Parking: tiedowns
Airframe service: NONE
Powerplant service: NONE
Bottled oxygen: NONE
Bulk oxygen: NONE

Runway Information

Runway 18/36

Dimensions: 2590 x 70 ft. / 789 x 21 m
Surface: turf, in fair condition
RY 18/36 SOFT TURF.
Runway edge lights: low intensity
RY 18/36 NSTD LIRL.
Runway edge markings: 18/36 LENGTH AND WIDTH AND DSPLCD THLDS MKD WITH WHITE TIRES.
RUNWAY 18  RUNWAY 36
Latitude: 29-59.581000N29-59.153667N
Longitude: 084-23.723500W084-23.723500W
Traffic pattern: leftleft
Displaced threshold: 200 ft.375 ft.
Markings: NSTDNSTD
Obstructions: 15 ft. road, 102 ft. from runway, 125 ft. left of centerline, 6:1 slope to clear
RY 18 APPROACH SLOPE 20:1 TO THE DSPLCD THLD.
31 ft. tree, 340 ft. from runway, 60 ft. right of centerline, 11:1 slope to clear
RY 36 APCH RATIO 20:1 TO DSPLCD THLD DUE TO 52 FT TREE 659 FT FROM END OF RY 85 FT R OF CNTRLN.

Airport Ownership and Management from official FAA records

Ownership: Publicly-owned
Owner: WAKULLA COUNTY
PO BOX 1263
CRAWFORDVILLE, FL 32326-1263
Phone 850-926-0919
CONTACT PERSON: DAVID EDWARDS
Manager: STEVEN FULTS
35 MONOCOUPE CIRCLE
PANACEA, FL 32346
Phone (850) 984-3500
ALT PHONE 850-984-3500.

Airport Operational Statistics

Aircraft based on the field: 3
Single engine airplanes: 2
Ultralights: 1
    
Aircraft operations: avg 46/week *
84% local general aviation
13% transient general aviation
3% military
* for 12-month period ending 27 April 2017

Additional Remarks

AER 36 HAS 10-25 FT TREES AND 5 FT FENCE.
50 FT TREES WEST SIDE OF RY 100 FT FROM CNTRLN.
TREES, BLDGS, WINDSOCK POLES, LIGHTNING DETECTION SYSTEM, BERMS AND UTILITY POLES 75-125 FT EAST OF RY 18/36.
TREES 100-125 FT WEST OF RY 18/36.

Instrument Procedures

There are no published instrument procedures at 2J0.

Some nearby airports with instrument procedures:

KTLH - Tallahassee International Airport (25 nm N)
KAAF - Apalachicola Regional Airport-Cleve Randolph Field (36 nm SW)
2J9 - Quincy Municipal Airport (37 nm N)
40J - Perry-Foley Airport (43 nm E)
70J - Cairo-Grady County Airport (55 nm N)
 
Loc | Ops | Rwys | IFR | FBO | Links
Com | Nav | Svcs | Stats | Notes


 
Area around 2J0 (Wakulla County Airport)
 
Road maps at: MapQuest Bing Google
 
Aerial photo
WARNING: Photo may not be current or correct
Aerial photo of 2J0 (Wakulla County Airport)
Taken in May 2016
looking northwest

Do you have a better or more recent aerial photo of Wakulla County Airport that you would like to share? If so, please send us your photo.

 
Sectional chart

 
Airport distance calculator
Flying to Wakulla County Airport? Find the distance to fly.

From to 2J0

Sunrise and sunset
Times for 19-Jul-2018
 Local
(UTC-4)
 Zulu
(UTC)
Morning civil twilight06:2310:23
Sunrise06:5010:50
Sunset20:3800:38
Evening civil twilight21:0401:04

Current date and time
Zulu (UTC)  19-Jul-2018 06:31:32
Local (UTC-4)  19-Jul-2018 02:31:32
 
METAR
KTLH 
25nm N 
190553Z AUTO 00000KT 10SM CLR 25/24 A2991 RMK AO2 SLP126 T02500239 10272 20244 58013
KAAF 
37nm SW 
190553Z AUTO 00000KT 10SM FEW070 26/25 A2992 RMK AO2 SLP130 T02560250 10283 20256 58008
K2J9 
37nm N 
190615Z AUTO 00000KT 10SM FEW023 24/24 A2992 RMK AO2
K40J 
43nm E 
190615Z AUTO 00000KT 10SM CLR 25/24 A2992 RMK AO2 LTG DSNT SW T02470237
TAF
KTLH 
25nm N 
190520Z 1906/2006 VRB03KT P6SM BKN250 FM191500 26005KT P6SM SCT025 BKN040 FM191800 23005KT P6SM TS BKN040CB FM200000 VRB03KT P6SM FEW040 BKN250
NOTAMs
Click for the latest NOTAMs
NOTAMs are issued by the DoD/FAA and will open in a separate window not controlled by AirNav.

 

 
 

Would you like to see your business listed on this page?

 If your business provides an interesting product or service to pilots, flight crews, aircraft, or users of the Wakulla County Airport, you should consider listing it here.  To start the listing process, click on the button below
 
Add a business
 

Other Pages about Wakulla County Airport

www.mywakulla.com/...
 
Update a link
 
Copyright © AirNav, LLC. All rights reserved. Privacy Policy  Contact